| time (UTC) | temp F | wind direction | speed knots | gust knots | rain 1hr in | rain 24hr in | rain mn in | humidity % | barometer mb |
| 20260504060143 | 51 | 308 | 0.0 | 7.0 | 0.00 | 0.00 | 0.00 | 50 | 1012.5 |
| 20260504050139 | 53 | 26 | 6.1 | 16.5 | 0.00 | 0.00 | 0.00 | 47 | 1012.0 |
| 20260504044538 | 54 | 13 | 8.7 | 14.8 | 0.00 | 0.00 | 0.00 | 44 | 1012.0 |
| 20260504043041 | 54 | 360 | 7.0 | 15.6 | 0.00 | 0.00 | 0.00 | 42 | 1011.4 |
| 20260504041536 | 55 | 23 | 8.7 | 18.2 | 0.00 | 0.00 | 0.00 | 41 | 1011.0 |
| 20260504040135 | 55 | 347 | 9.6 | 20.0 | 0.00 | 0.00 | 0.00 | 39 | 1010.7 |
| 20260504034553 | 56 | 17 | 12.2 | 20.0 | 0.00 | 0.00 | 0.00 | 39 | 1010.4 |
| 20260504033051 | 56 | 43 | 7.8 | 13.0 | 0.00 | 0.00 | 0.00 | 41 | 1009.8 |
| 20260504031552 | 56 | 15 | 7.8 | 15.6 | 0.00 | 0.00 | 0.00 | 40 | 1009.6 |
| 20260504030151 | 57 | 20 | 7.8 | 15.6 | 0.00 | 0.00 | 0.00 | 39 | 1009.1 |
| 20260504024548 | 57 | 344 | 8.7 | 15.6 | 0.00 | 0.00 | 0.00 | 38 | 1008.9 |
| 20260504023046 | 57 | 5 | 8.7 | 14.8 | 0.00 | 0.00 | 0.00 | 37 | 1008.8 |
| 20260504021544 | 58 | 12 | 8.7 | 20.0 | 0.00 | 0.00 | 0.00 | 38 | 1008.7 |
| 20260504020145 | 58 | 71 | 8.7 | 16.5 | 0.00 | 0.00 | 0.00 | 38 | 1008.6 |
| 20260504014555 | 59 | 22 | 12.2 | 22.6 | 0.00 | 0.00 | 0.00 | 36 | 1008.2 |
| 20260504013050 | 60 | 41 | 15.6 | 26.1 | 0.00 | 0.00 | 0.00 | 36 | 1007.8 |
| 20260504011543 | 61 | 29 | 14.8 | 24.3 | 0.00 | 0.00 | 0.00 | 34 | 1007.5 |
| 20260504010139 | 62 | 15 | 13.0 | 26.1 | 0.00 | 0.00 | 0.00 | 33 | 1007.3 |
| 20260504004551 | 65 | 46 | 13.9 | 20.9 | 0.00 | 0.00 | 0.00 | 31 | 1007.1 |
| 20260504003038 | 67 | 360 | 11.3 | 18.2 | 0.00 | 0.00 | 0.00 | 30 | 1006.7 |
| 20260504001551 | 67 | 22 | 11.3 | 21.7 | 0.00 | 0.00 | 0.00 | 28 | 1006.5 |
| 20260504000135 | 68 | 333 | 7.8 | 19.1 | 0.00 | 0.00 | 0.00 | 29 | 1006.3 |
| 20260503234533 | 68 | 320 | 9.6 | 19.1 | 0.00 | 0.00 | 0.00 | 27 | 1006.2 |
| 20260503233038 | 68 | 309 | 10.4 | 18.2 | 0.00 | 0.00 | 0.00 | 26 | 1006.5 |
| 20260503231533 | 68 | 321 | 11.3 | 19.1 | 0.00 | 0.00 | 0.00 | 26 | 1006.5 |
| 20260503230131 | 69 | 294 | 13.0 | 22.6 | 0.00 | 0.00 | 0.00 | 25 | 1006.3 |
| 20260503224551 | 69 | 355 | 11.3 | 25.2 | 0.00 | 0.00 | 0.00 | 26 | 1006.5 |
| 20260503223050 | 69 | 319 | 14.8 | 25.2 | 0.00 | 0.00 | 0.00 | 26 | 1006.5 |
| 20260503221549 | 69 | 312 | 14.8 | 23.5 | 0.00 | 0.00 | 0.00 | 26 | 1006.6 |
| 20260503220146 | 70 | 338 | 13.0 | 22.6 | 0.00 | 0.00 | 0.00 | 26 | 1006.5 |
| 20260503214546 | 70 | 286 | 12.2 | 23.5 | 0.00 | 0.00 | 0.00 | 26 | 1006.5 |
| 20260503213045 | 70 | 302 | 14.8 | 26.9 | 0.00 | 0.00 | 0.00 | 27 | 1006.6 |
| 20260503211548 | 70 | 283 | 15.6 | 22.6 | 0.00 | 0.00 | 0.00 | 25 | 1006.7 |
| 20260503210142 | 71 | 304 | 19.1 | 27.8 | 0.00 | 0.00 | 0.00 | 25 | 1006.7 |
| 20260503204545 | 72 | 304 | 11.3 | 27.8 | 0.00 | 0.00 | 0.00 | 25 | 1006.4 |
| 20260503203102 | 72 | 321 | 13.0 | 25.2 | 0.00 | 0.00 | 0.00 | 26 | 1006.6 |
| 20260503201541 | 71 | 298 | 18.2 | 30.4 | 0.00 | 0.00 | 0.00 | 24 | 1006.9 |
| 20260503200139 | 70 | 265 | 15.6 | 27.8 | 0.00 | 0.00 | 0.00 | 26 | 1006.8 |
| 20260503194543 | 71 | 284 | 16.5 | 26.1 | 0.00 | 0.00 | 0.00 | 25 | 1007.0 |
| 20260503193040 | 70 | 288 | 16.5 | 24.3 | 0.00 | 0.00 | 0.00 | 26 | 1007.3 |
| 20260503191543 | 70 | 300 | 16.5 | 26.9 | 0.00 | 0.00 | 0.00 | 26 | 1007.6 |
| 20260503190133 | 70 | 311 | 17.4 | 28.7 | 0.00 | 0.00 | 0.00 | 26 | 1007.7 |
| 20260503184657 | 70 | 284 | 18.2 | 26.1 | 0.00 | 0.00 | 0.00 | 26 | 1007.8 |
| 20260503183055 | 69 | 267 | 17.4 | 29.5 | 0.00 | 0.00 | 0.00 | 27 | 1008.0 |
| 20260503181559 | 68 | 307 | 17.4 | 25.2 | 0.00 | 0.00 | 0.00 | 27 | 1008.0 |
| 20260503180150 | 68 | 259 | 14.8 | 23.5 | 0.00 | 0.00 | 0.00 | 29 | 1008.5 |
| 20260503174549 | 68 | 302 | 11.3 | 19.1 | 0.00 | 0.00 | 0.00 | 30 | 1008.9 |
| 20260503173047 | 66 | 284 | 13.0 | 23.5 | 0.00 | 0.00 | 0.00 | 30 | 1009.2 |
| 20260503171545 | 66 | 284 | 13.9 | 20.9 | 0.00 | 0.00 | 0.00 | 31 | 1009.3 |
| 20260503170144 | 66 | 284 | 9.6 | 14.8 | 0.00 | 0.00 | 0.00 | 32 | 1009.3 |
| 20260503160138 | 60 | 294 | 9.6 | 14.8 | 0.00 | 0.00 | 0.00 | 39 | 1009.9 |
| 20260503140150 | 49 | 275 | 7.8 | 11.3 | 0.00 | 0.00 | 0.00 | 52 | 1010.4 |
| 20260503130147 | 44 | 260 | 7.0 | 9.6 | 0.00 | 0.00 | 0.00 | 61 | 1010.3 |
| 20260503120140 | 41 | 255 | 3.5 | 7.8 | 0.00 | 0.00 | 0.00 | 69 | 1010.3 |
| 20260503110136 | 44 | 269 | 7.0 | 8.7 | 0.00 | 0.00 | 0.00 | 68 | 1010.3 |
| 20260503100131 | 43 | 244 | 4.3 | 7.8 | 0.00 | 0.00 | 0.00 | 79 | 1010.0 |
| 20260503090147 | 43 | 230 | 5.2 | 7.8 | 0.00 | 0.00 | 0.00 | 79 | 1009.9 |
| 20260503081555 | 44 | 220 | 5.2 | 8.7 | 0.00 | 0.00 | 0.00 | 77 | 1010.5 |
| 20260503080142 | 45 | 161 | 5.2 | 8.7 | 0.00 | 0.00 | 0.00 | 75 | 1010.7 |
| 20260503071541 | 45 | 211 | 2.6 | 7.0 | 0.00 | 0.00 | 0.00 | 74 | 1011.0 |
| 20260503070137 | 45 | 216 | 5.2 | 7.0 | 0.00 | 0.00 | 0.00 | 73 | 1011.0 |